Regional Weather Roundup
Issued by NWS Jackson, KY

Current Version | Previous Version | Text Only | Print | Product List | Glossary On
Versions: 1 2 3 4 5 6 7 8 9 10 11 12 13 14 15 16 17 18 19 20 21 22 23 24 25 26 27
000
ASUS43 KJKL 181410
RWRJKL

EAST KENTUCKY HOURLY WEATHER ROUNDUP
NATIONAL WEATHER SERVICE JACKSON KY
900 AM EST MON DEC 18 2017

NOTE: "FAIR" INDICATES FEW OR NO CLOUDS BELOW 12,000 FEET WITH
NO SIGNIFICANT WEATHER AND/OR OBSTRUCTIONS TO VISIBILITY.

* THESE REPORTS ARE NOT UNDER NWS QUALITY CONTROL AND MAY NOT
  REPORT WEATHER SUCH AS PRECIPITATION AND FOG.

KYZ079-080-083-085-087-088-110-112-115-119-120-181500
...EASTERN KENTUCKY...

CITY           SKY/WX    TMP DP  RH WIND       PRES   REMARKS
JACKSON        CLOUDY    44  43  96 SW3       30.13S FOG
LONDON         CLOUDY    45  44  97 S5        30.15R FOG
SOMERSET*      CLOUDY    43  43 100 CALM      30.17S FOG
MONTICELLO*    LGT RAIN  46  46 100 NW9       30.17S FOG
WILLIAMSBURG*  CLOUDY    43  43 100 SE6       30.16R VSB 3/4
MIDDLESBORO*   CLOUDY    41  41 100 CALM      30.18S FOG
HARLAN APT*    CLOUDY    41  39  93 CALM      30.16F
PIKE CO APT*   FOG       42  42 100 S3        30.13S VSB 1/4
BIG SANDY APT* CLOUDY    44  44 100 CALM      30.14R
MOREHEAD APT*  CLOUDY    43  41  93 SW6       30.14S FOG
$$

KYZ035-036-041-042-044-050-067-078-099-181500
...CENTRAL KENTUCKY...

CITY           SKY/WX    TMP DP  RH WIND       PRES   REMARKS
MT STERLING*   FOG       43  43 100 W8        30.15R VSB 1/2
FLEMING/MASON* CLOUDY    42  42 100 SW10      30.13S FOG
DANVILLE*      CLOUDY    43  43 100 SW6       30.15R
LEXINGTON      CLOUDY    44  42  93 SW12      30.13S FOG
FRANKFORT      CLOUDY    45  42  89 S10       30.11S
LOUISVILLE     CLOUDY    46  43  89 SW6       30.12S
LEBANON*       CLOUDY    45  45 100 S5        30.14S FOG
GLASGOW*       CLOUDY   N/A N/A N/A CALM      30.14F FOG
BOWLING GREEN  CLOUDY    47  46  97 SW6       30.16R FOG
$$

KYZ091>093-OHZ055-061-077-WVZ005-015-034-035-042-181500
...SOUTHERN OHIO/WEST VIRGINIA...

CITY           SKY/WX    TMP DP  RH WIND       PRES   REMARKS
COVINGTON      DRZL/FOG  43  43 100 SW7       30.09R VSB 1/8
COLUMBUS       DRIZZLE   41  39  93 S8        30.06S
DAYTON         DRIZZLE   41  41 100 SW15      30.06R
WILMINGTON     CLOUDY    41  41 100 SW14      30.06S FOG
HUNTINGTON     CLOUDY    43  40  89 SW7       30.12R FOG
CHARLESTON     CLOUDY    42  41  96 SE3       30.12S FOG
PINEVILLE*     CLOUDY    40  39  98 MISG      30.20R FOG
BECKLEY        CLOUDY    40  39  97 SW9       30.12R FOG     WCI  34
BLUEFIELD      FOG       39  38  96 W10       30.14R VSB 1/4 WCI  32
LOGAN CO APT*  CLOUDY    43  43 100 CALM      30.13R FOG
$$

VAZ002-007-008-TNZ017-027-036-066-071-181500
...SOUTHWEST VIRGINIA/EAST TENNESSEE...

CITY           SKY/WX    TMP DP  RH WIND       PRES   REMARKS
WISE*          CLOUDY    41  41 100 SW3       30.15F FOG
JONESVILLE*    FOG       41  41 100 CALM      30.19F VSB 3/4
ABINGDON*      FOG       42  42 100 CALM      30.18R VSB 1/2
BRISTOL        DRZL/FOG  41  41 100 CALM      30.18F VSB 3/4
MORRISTOWN*    CLOUDY    41  41 100 CALM      30.17S FOG
SEVIERVILLE*   CLOUDY    41  41 100 CALM      30.19R FOG
KNOXVILLE      CLOUDY    41  41 100 CALM      30.18R FOG
LAFOLLETTE*    FOG       41  41 100 CALM      30.21S VSB 1/2
OAK RIDGE      CLOUDY    43  43 100 CALM      30.19F FOG
CROSSVILLE     CLOUDY    46  45  96 SW6       30.16R FOG
NASHVILLE      CLOUDY    49  47  93 CALM      30.17R FOG
$$

...KEY TO REMARKS...
VSB - VISIBILITY IN MILES
WCI - WIND CHILL INDEX
HX  - HEAT INDEX

$$




USA.gov is the U.S. government's official web portal to all federal, state and local government web resources and services.